CZ-6A DEB, 60813

Orbit data source: Space-Track

CZ-6A DEB, 60813 is space debris in LEO originally from a launch on Tue, 06 Aug 2024 UTC launched from the Taiyaun Space Center, China (TSC). Debris objects in space refer to the collection of defunct objects orbiting the Earth. Examples of debris include non-operational satellites, rocket bodies, and fragments generated from explosions, collisions, or faulty payload assembly.

Loading next visibility...
Identifier
60813, 2024-140GQ
Orbit
LEO
Country
Flag of CNCN / PRC
Related business
Manufacturer
SAST
Mission
Spacecraft
Bus & Motor
Unknown
Mass
Unknown
Launch date (UTC)
2024-08-06 (2 years ago)
Launch vehicle
Unknown
Launch site
Taiyaun Space Center, China (TSC)
Object type
Payload
Rocket body
Debris
Shape & HBR
Unknown shape, 0.1 m
Radar Cross Section
Small (<0.1 m²)

Expand to show TLE details & history
Last TLE update: 1 day ago

TLE from 1 day ago
0 CZ-6A DEB
1 60813U 24140GQ  26129.38049950  .00000249  00000-0  95043-4 0  9997
2 60813  88.9177 272.1943 0023529 234.6842 125.2153 14.27498968 90622
Epoch: 2026-05-09T09:07Z
TLE epoch observation values (Epoch: 2026-05-09T09:07:55.156Z)
Latitude
0.00002°
Longitude
-91.98428°
Altitude
812.934 km
Speed
7.442 km/s
True Right ascension
18h 08m 46s
True Declination
0° 00' 00"
Sunlit
Object was in full shadow at epoch
Visualization orbit readout
Latitude
Unknown
Longitude
Unknown
Altitude
Unknown
Speed
Unknown
Apparent Right ascension
Unknown
Apparent Declination
Unknown
Sunlit
N/A
Visualization observer readout
Local Sidereal Time
22:57:44
Azimuth
Unknown
Elevation
Unknown
Doppler factor
Unknown
Orbital elements
Apogee altitude
813.926 km
Perigee altitude
780.161 km
Semi-major axis
7,175.181 km
Eccentricity
0.00235
Inclination
88.9177°
RAAN
272.1943°
Arg. of periapsis
234.6842°
True anomaly
125.43521°
Mean anomaly
125.2153°
Eccentric anomaly
125.32529°
Mean motion
3.57103 °/min
Orbital period
100.81 mins
BSTAR
0.000095043
Loading maneuver chart data...
Computing Atmospheric mass density...

Documentation

Showing up to 5 results
|